User: anonymous   Login
Location: Desert Center
(33.7130°N, 115.4010°W)
Time: 18:18:13
(UTC-08:00)
Language:

USA 215 - Orbit

View from above orbital plane
View from above orbital plane
View from above satellite
View from above satellite

Ground track
Ground track

The orbit data is extracted from the following two-line orbital elements,

1 37162U 10046A   14314.84703355 0.00000000  00000-0  00000-0 0    01
2 37162 122.9945 109.2244 0005247  47.1218 312.8782 13.41449480    05
Epoch (UTC): 10 November 2014 20:19:43
Eccentricity: 0.0005247
inclination: 122.9945°
perigee height: 1100 km
apogee height: 1108 km
right ascension of ascending node: 109.2244°
argument of perigee: 47.1218°
revolutions per day: 13.41449480
mean anomaly at epoch: 312.8782°
orbit number at epoch: 0

The dashed part of the orbit path shows where the satellite is in the earth's shadow,  

DLR